Search : Mkt:

Z Scale Model Trains Database

Engines, Rolling Stock, Structures, and Accessories

Noch Sample Layout

Z-Scale Model Trains

Z-Scale is a dimensional relationships of 1/220. All share in common a railroad gauge of 6.5mm (0.256 in). Z-Scale Train Modeling is a hobby concerned with the recreation, display and operation of railway equipment in miniature. Z-Scale is sometimes also referred to as Z-Gauge. Z scale (1:220) was introduced by the Märklin company in 1972, and is one of the smallest commercially available model railway scales.

Z scale trains operate on 0-10 volts direct current and offer the same operating characteristics as all other two-rail, direct-current, analog model railways. Locomotives can be fitted with digital decoders for independent control. Model trains, track, structures, and human/animal figures are readily available in European, North American, and Japanese styles from a variety of manufacturers. Originally running on 8 Volts DC, track voltage was increased to 10 Volts DC around the year 2000. Accessory power has always been 10 Volts AC.

Body Style:
Brand:
Manufacturer:
Road or Company Name:
Series Name:
Model Type:
Total items in collection: 985. Total items on page 107

First Image Brand Stock Number Road or Company Name Reporting Marks Road or Reporting Number Prototype Original Retail Price Market Release Date ID
AZL 63507-1 Amtrak 156 Locomotive, Diesel, GE P42 Genesis $189.00 160559
AZL 63508-1 Amtrak 66 Locomotive, Diesel, GE P42 Genesis $189.00 160560
Märklin 88184 Deutsche Bahn DB Locomotive, Steam, 4-6-2, BR 18 239.99€ E:$218.81 2016-01-01 144492
Micro-Trains 12001 Union Pacific 1471 Locomotive, Diesel, EMD F7 2001-07-01 159904
Micro-Trains 14001 Union Pacific 1467 Locomotive, Diesel, EMD F7 2002-12-01 159926
Micro-Trains 14007 Santa Fe 342 Locomotive, Diesel, EMD F7 2004-03-01 159989
Micro-Trains 14012 Canadian Pacific 4069 Locomotive, Diesel, EMD F7 2003-08-01 159972
Micro-Trains 14013 Baltimore & Ohio 4471 Locomotive, Diesel, EMD F7 2004-09-01 160005
Micro-Trains 14014 Milwaukee Road 83C Locomotive, Diesel, EMD F7 2004-12-01 160015
Micro-Trains 17001 Union Pacific 1476 Locomotive, Diesel, EMD F7 2001-09-01 159908
Micro-Trains 17004 Southern Pacific 8023 Locomotive, Diesel, EMD F7 2002-04-01 159915
Micro-Trains 17005 Lehigh Valley 515 Locomotive, Diesel, EMD F7 2003-04-01 159966
Micro-Trains 17007 Santa Fe Locomotive, Diesel, EMD F7 2004-04-01 159993
Micro-Trains 17008 Great Northern Locomotive, Diesel, EMD F7 2001-02-01 159854
Micro-Trains 17012 Canadian Pacific 4459 Locomotive, Diesel, EMD F7 2004-01-01 159985
Micro-Trains 90 01 010 Union Pacific 1469 Locomotive, Diesel, EMD F7 2005-04-01 160065
Micro-Trains 970 01 011 CSX Transportation 8014 Locomotive, Diesel, EMD SD40-2 $185.95 2009-09-01 160697
Micro-Trains 970 01 012 CSX Transportation 8033 Locomotive, Diesel, EMD SD40-2 $185.95 2009-09-01 160698
Micro-Trains 970 01 091 Santa Fe 5036 Locomotive, Diesel, EMD SD40-2 $225.95 2019-01-01 151332
Micro-Trains 970 01 092 Santa Fe 5039 Locomotive, Diesel, EMD SD40-2 $225.95 E:$147.56 2019-01-01 151333
Micro-Trains 970 01 251 Southern Pacific 7300 Locomotive, Diesel, EMD SD40-2 $210.95 E:$149.98 2019-02-01 152816
Micro-Trains 970 01 251 Southern Pacific 7300 Locomotive, Diesel, EMD SD40-2 $210.95 2019-03-01 154599
Micro-Trains 970 01 252 Southern Pacific 7306 Locomotive, Diesel, EMD SD40-2 $210.95 E:$149.98 2019-02-01 152817
Micro-Trains 970 01 252 Southern Pacific 7306 Locomotive, Diesel, EMD SD40-2 $210.95 E:$149.98 2019-03-01 154600
Micro-Trains 970 01 261 CSX Transportation CSX 8244 Locomotive, Diesel, EMD SD40-2 $215.95 2019-04-01 158367
Micro-Trains 970 01 262 CSX Transportation CSX 8250 Locomotive, Diesel, EMD SD40-2 $215.95 2019-04-01 158368
Micro-Trains 980 01 010 Union Pacific 1469 Locomotive, Diesel, EMD F7 2005-04-01 160066
Micro-Trains 980 01 011 Union Pacific 1426 Locomotive, Diesel, EMD F7 $139.95 2016-12-01 154624
Micro-Trains 980 01 012 Union Pacific 1449 Locomotive, Diesel, EMD F7 $139.95 2016-12-01 154625
Micro-Trains 980 01 150 Atlantic Coast Line 430 Locomotive, Diesel, EMD F7 2005-03-01 160061
Micro-Trains 980 01 160 Rio Grande 5714 Locomotive, Diesel, EMD F7 2005-06-01 160073
Micro-Trains 980 01 170 Southern Pacific SP 6440 Locomotive, Diesel, EMD F7 2008-04-01 160348
Micro-Trains 980 01 510 Twelve Days of Christmas 12 Locomotive, Diesel, EMD F7 2005-08-01 160081
Micro-Trains 980 02 011 Union Pacific 1426 Locomotive, Diesel, EMD F7 $114.95 2016-12-01 154626
Micro-Trains 980 02 012 Union Pacific 1449 Locomotive, Diesel, EMD F7 $114.95 2016-12-01 154627
Micro-Trains 980 12 030 New York Central 3431 Locomotive, Diesel, EMD F7 2007-02-01 160251
Micro-Trains 980 12 060 Western Pacific Locomotive, Diesel, EMD F7 2009-05-01 160551
Micro-Trains 980 12 130 Baltimore & Ohio Locomotive, Diesel, EMD F7 $45.95 2009-08-01 160686
Micro-Trains 980 12 140 Milwaukee Road Locomotive, Diesel, EMD F7 2007-02-01 160252
Micro-Trains 980 12 150 Atlantic Coast Line Locomotive, Diesel, EMD F7 2009-05-01 160552
Micro-Trains 980 12 160 Rio Grande Locomotive, Diesel, EMD F7 2007-02-01 160253
Micro-Trains 980 12 170 Southern Pacific 8295 Locomotive, Diesel, EMD F7 2008-04-01 160349
Micro-Trains 981 00 070 SOO Line 727 Locomotive, Diesel, EMD GP35 $185.95 2006-08-01 158002
Micro-Trains 981 00 072 SOO Line 731 Locomotive, Diesel, EMD GP35 $185.95 2006-08-01 158003
Micro-Trains 981 00 091 Southern Pacific 6316 Locomotive, Diesel, EMD GP35 $175.95 2007-01-01 158004
Micro-Trains 981 00 092 Southern Pacific 6323 Locomotive, Diesel, EMD GP35 $175.95 2007-01-01 158005
Micro-Trains 981 01 010 Pennsylvania 2359 Locomotive, Diesel, EMD GP35 2008-11-01 160412
Micro-Trains 981 01 010 Pennsylvania 2365 Locomotive, Diesel, EMD GP35 2005-09-01 160083
Micro-Trains 981 01 020 Union Pacific 753 Locomotive, Diesel, EMD GP35 2005-10-01 160089
Micro-Trains 981 01 030 Canadian Pacific 5016 Locomotive, Diesel, EMD GP35 2005-11-01 160096
Micro-Trains 981 01 040 Santa Fe 2893 Locomotive, Diesel, EMD GP35 2006-01-01 160173
Micro-Trains 981 01 050 Chessie System C&O 3562 Locomotive, Diesel, EMD GP35 2006-03-01 160181
Micro-Trains 981 01 060 Burlington Northern 2504 Locomotive, Diesel, EMD GP35 2006-05-01 160192
Micro-Trains 981 01 062 Burlington Northern 2507 Locomotive, Diesel, EMD GP35 2006-05-01 160193
Micro-Trains 981 01 081 Conrail 2257 Locomotive, Diesel, EMD GP35 2006-10-01 160215
Micro-Trains 981 01 082 Conrail 2261 Locomotive, Diesel, EMD GP35 2006-10-01 160216
Micro-Trains 981 01 091 Southern Pacific SP 6316 Locomotive, Diesel, EMD GP35 2007-01-01 160247
Micro-Trains 981 01 092 Southern Pacific SP 6323 Locomotive, Diesel, EMD GP35 2007-01-01 160248
Micro-Trains 981 01 101 Rock Island 320 Locomotive, Diesel, EMD GP35 2007-05-01 160265
Micro-Trains 981 01 102 Rock Island 322 Locomotive, Diesel, EMD GP35 2007-05-01 160266
Micro-Trains 981 01 111 Penn Central 2289 Locomotive, Diesel, EMD GP35 2008-01-01 160326
Micro-Trains 981 01 112 Penn Central 2310 Locomotive, Diesel, EMD GP35 2008-01-01 160327
Micro-Trains 981 01 121 Missouri Pacific 600 Locomotive, Diesel, EMD GP35 2008-06-01 160365
Micro-Trains 981 01 122 Missouri Pacific 622 Locomotive, Diesel, EMD GP35 2008-06-01 160366
Micro-Trains 981 01 131 Illinois Central Gulf 2501 Locomotive, Diesel, EMD GP35 2008-09-01 160392
Micro-Trains 981 01 132 Illinois Central Gulf 2505 Locomotive, Diesel, EMD GP35 2008-09-01 160393
Micro-Trains 981 01 141 Frisco 708 Locomotive, Diesel, EMD GP35 2008-11-01 160413
Micro-Trains 981 01 142 Frisco 709 Locomotive, Diesel, EMD GP35 2008-11-01 160414
Micro-Trains 981 01 150 Southern Pacific SP 6533 Locomotive, Diesel, EMD GP35 $195.95 2009-03-01 160513
Micro-Trains 981 01 160 Santa Fe SF 2858 Locomotive, Diesel, EMD GP35 $195.95 2009-03-01 160515
Micro-Trains 981 01 171 Burlington Northern Santa Fe BNSF 2529 Locomotive, Diesel, EMD GP35 $195.95 2009-04-01 160532
Micro-Trains 981 01 172 Burlington Northern Santa Fe BNSF 2556 Locomotive, Diesel, EMD GP35 $195.95 2009-04-01 160533
Micro-Trains 981 01 181 Montana Rail Link 401 Locomotive, Diesel, EMD GP35 $195.95 2009-05-01 160553
Micro-Trains 981 01 182 Montana Rail Link 402 Locomotive, Diesel, EMD GP35 $195.95 2009-05-01 160554
Micro-Trains 981 01 191 Burlington Route 978 Locomotive, Diesel, EMD GP35 $195.95 2009-06-01 160665
Micro-Trains 981 01 192 Burlington Route 979 Locomotive, Diesel, EMD GP35 $195.95 2009-06-01 160666
Micro-Trains 981 01 200 Baltimore & Ohio B&O 3547 Locomotive, Diesel, EMD GP35 $175.95 2009-08-01 160687
Micro-Trains 981 01 210 Chesapeake & Ohio C&O 3568 Locomotive, Diesel, EMD GP35 $175.95 2009-08-01 160688
Micro-Trains 981 01 520 Smokey Bear 1944 Locomotive, Diesel, EMD GP35 2006-02-01 160177
Micro-Trains 982 01 019 United States Lines 50 Locomotive, Diesel, EMD GP9 2009-07-01 160675
Micro-Trains 982 01 021 Canadian National 4597 Locomotive, Diesel, EMD GP9 2007-08-01 160279
Micro-Trains 982 01 022 Canadian National 4598 Locomotive, Diesel, EMD GP9 2007-08-01 160280
Micro-Trains 982 01 031 New Haven 1203 Locomotive, Diesel, EMD GP9 2007-11-01 160293
Micro-Trains 982 01 032 New Haven 1212 Locomotive, Diesel, EMD GP9 2007-11-01 160294
Micro-Trains 982 01 041 Milwaukee Road 800 Locomotive, Diesel, EMD GP9 2007-12-01 160301
Micro-Trains 982 01 042 Milwaukee Road 801 Locomotive, Diesel, EMD GP9 2007-12-01 160302
Micro-Trains 982 01 051 Rio Grande 5904 Locomotive, Diesel, EMD GP9 2008-02-01 160334
Micro-Trains 982 01 052 Rio Grande 5911 Locomotive, Diesel, EMD GP9 2008-02-01 160335
Micro-Trains 982 01 061 Santa Fe 2926 Locomotive, Diesel, EMD GP9 2008-03-01 160342
Micro-Trains 982 01 062 Santa Fe 2929 Locomotive, Diesel, EMD GP9 2008-03-01 160343
Micro-Trains 982 01 071 Chicago & North Western 604 Locomotive, Diesel, EMD GP9 2008-05-01 160356
Micro-Trains 982 01 072 Chicago & North Western 608 Locomotive, Diesel, EMD GP9 2008-05-01 160357
Micro-Trains 982 01 081 Guilford ST 52 Locomotive, Diesel, EMD GP9 2008-07-01 160373
Micro-Trains 982 01 082 Guilford ST 54 Locomotive, Diesel, EMD GP9 2008-07-01 160374
Micro-Trains 982 01 090 Western Pacific WP 725 Locomotive, Diesel, EMD GP9 2008-08-01 160382
Micro-Trains 982 01 100 Sacramento Northern 712 Locomotive, Diesel, EMD GP9 2008-08-01 160383
Micro-Trains 982 01 111 Baltimore & Ohio 6604 Locomotive, Diesel, EMD GP9 2008-10-01 160401
Micro-Trains 982 01 120 Southern Pacific 5669 Locomotive, Diesel, EMD GP9 2008-12-01 160433
Micro-Trains 982 01 122 Baltimore & Ohio 6607 Locomotive, Diesel, EMD GP9 2008-10-01 160402
Micro-Trains 982 01 130 Cotton Belt 3644 Locomotive, Diesel, EMD GP9 2008-12-01 160434
Micro-Trains 982 01 140 Grand Trunk Western 4449 Locomotive, Diesel, EMD GP9 2009-01-01 160481
Micro-Trains 982 01 150 Central Vermont 4557 Locomotive, Diesel, EMD GP9 2009-01-01 160482
Micro-Trains 982 01 160 Amtrak 766 Locomotive, Diesel, EMD GP9 Unknown 2009-02-01 160497
Micro-Trains 982 01 170 Amtrak Amtrak 761 Locomotive, Diesel, EMD GP9 $195.95 2009-03-01 160518
Micro-Trains 982 01 181 Pennsylvania 7000 Locomotive, Diesel, EMD GP9 $175.95 2009-07-01 160676
Micro-Trains 982 01 182 Pennsylvania 7008 Locomotive, Diesel, EMD GP9 $175.95 2009-07-01 160677
Micro-Trains 994 01 140 Amtrak 770 Locomotive, Diesel, EMD GP9 2009-04-01 160535